Regional Weather Roundup
Issued by NWS

Home | Current Version | Previous Version | Graphics & Text | Print | Product List | Glossary On
Versions: 1 2 3 4 5 6 7 8 9 10 11 12 13 14 15 16 17 18 19 20 21 22 23 24 25 26 27 28 29 30 31 32 33 34 35 36 37 38 39 40 41 42 43 44 45 46 47 48 49 50
000
ASUS43 KLOT 011310
RWRIL

ILLINOIS REGIONAL WEATHER ROUNDUP
NATIONAL WEATHER SERVICE CHICAGO/ROMEOVILLE IL
800 AM CDT WED OCT 01 2014

NOTE: "FAIR" INDICATES FEW OR NO CLOUDS BELOW 12,000 FEET WITH NO
SIGNIFICANT WEATHER AND/OR OBSTRUCTIONS TO VISIBILITY.

* THESE STATIONS ARE NOT UNDER NWS QUALITY CONTROL. THEY ALSO MAY NOT
  REPORT WEATHER SUCH AS PRECIPITATION OR FOG.

ILZ001-002-007-009-015-016-024-011400-
NORTHWEST ILLINOIS

CITY           SKY/WX    TMP DP  RH WIND       PRES   REMARKS
MOLINE         NOT AVBL
SAVANNA*       MOSUNNY   51  46  82 SE6       29.96S
$$

ILZ003-004-008-010-011-017-018-011400-
NORTH CENTRAL ILLINOIS

CITY           SKY/WX    TMP DP  RH WIND       PRES   REMARKS
ROCKFORD       PTSUNNY   51  46  83 SE9       30.01R
FREEPORT*      PTSUNNY   48  46  93 E6        30.00R
ROCHELLE*      PTSUNNY   49  47  90 SE7       29.99F
DE KALB*       SUNNY     48  46  90 SE8       30.00S
PERU*          SUNNY     51  46  83 SE9       29.99S
$$

ILZ005-006-012>014-019>023-011400-
NORTHEAST ILLINOIS

CITY           SKY/WX    TMP DP  RH WIND       PRES   REMARKS
CHICAGO-OHARE  MOSUNNY   53  47  79 SE10      30.01S
CHICAGO-MIDWAY MOSUNNY   55  48  77 SE8       30.01S
AURORA         SUNNY     52  46  80 SE8       30.01R
LANSING*       SUNNY     48  47  95 SE5       30.02S
JOLIET*        SUNNY     51  47  86 SE6       30.01S
WAUKEGAN       CLOUDY    56  47  71 SE7       30.01
DUPAGE AIRPORT SUNNY     52  46  80 SE7       30.01R
KANKAKEE*      SUNNY     49  47  94 E6        30.02S
WHEELING       PTSUNNY   55  47  74 S7        30.02F
MORRIS*        SUNNY     51  49  94 E5        30.00R
ROMEOVILLE*    SUNNY     50  47  90 SE6       30.01S
NORTHERLY ISL    N/A     57  48  72 SE14        N/A
$$

LMZ740>746-011400-
SOUTHERN LAKE MICHIGAN

STATION/POSITION SKY/WX   TEMP    WIND        PRES    VSBY  WAVE
                          AIR SEA DIR/SP/G                  HT/PER
                          (F)     (DEG/KT/KT) (MB)    (MI)  (FT/S)
SOUTHERN BUOY              56 62  150/ 10/ 12 1017.0R         2/ 4
WAUKEGAN HARBOR            57     160/ 12/ 14   N/A
HARRISON CRIB              56     150/ 13/ 18   N/A
BURNHAM HARBOR             57     140/ 11/ 14   N/A
CALUMET HARBOR             55     130/  7/ 11 1015.3F
MICHIGAN CITY              53      80/  4/  4   N/A
MICHIGAN CITY 6N           55 64  130/  8/ 10   N/A           1/ 2
ST. JOSEPH                 55 62  110/  8/ 10   N/A           1/ 2
$$

ILZ025>027-034>036-040-047-049-050-058-095>099-011400-
WEST-CENTRAL ILLINOIS

CITY           SKY/WX    TMP DP  RH WIND       PRES   REMARKS
QUINCY         MOSUNNY   56  52  86 SE10      29.89S
GALESBURG*     SUNNY     51  48  89 SE5       29.94R
MACOMB*        SUNNY     52  49  91 SE7       29.95S
JACKSONVILLE*  SUNNY     55  52  89 SE8       29.93S
PITTSFIELD*    SUNNY     56  53  91 E3        29.93R
$$

ILZ028>032-037-038-041>044-048-051>054-059>061-011400-
CENTRAL ILLINOIS

CITY           SKY/WX    TMP DP  RH WIND       PRES   REMARKS
PONTIAC        SUNNY     52  48  87 SE7       29.99S
BLOOMINGTON    SUNNY     51  49  93 SE8         N/A
DECATUR        MOSUNNY   54  51  90 E7        29.97S
PEORIA         MOSUNNY   56  48  74 E6        29.95S
LACON*         MOSUNNY   49  46  87 CALM      29.97R
LINCOLN*       MOSUNNY   55  51  85 SE6       29.95R
SPRINGFIELD    SUNNY     55  50  83 SE9       29.94S
TAYLORVILLE    SUNNY     54  50  87 SE8       29.95S
$$

ILZ033-039-045-046-055>057-062-063-011400-
EAST-CENTRAL ILLINOIS

CITY           SKY/WX    TMP DP  RH WIND       PRES   REMARKS
CHAMPAIGN      PTSUNNY   51  49  92 E9        29.99R
DANVILLE*      SUNNY     51  47  89 E6        29.97S
RANTOUL*       MOSUNNY   52  47  83 E5        29.99S
MATTOON        SUNNY     54  51  90 SE7       29.97R
PARIS*         SUNNY     52  51  96 E3        30.00R
$$

ILZ079-100>102-011400-
SOUTHWEST ILLINOIS

CITY           SKY/WX    TMP DP  RH WIND       PRES   REMARKS
ALTON          MOSUNNY   57  55  94 CALM      29.93S FOG
BELLEVILLE     SUNNY     58  58 100 CALM      29.92S
CAHOKIA*       SUNNY     62  60  93 SE6       29.92R
SPARTA*        MOSUNNY   61  59  94 SE7       29.93S FOG
$$

ILZ064>066-069>071-074>076-080>082-084>086-088>090-092>094-011400-
SOUTH-CENTRAL ILLINOIS

CITY           SKY/WX    TMP DP  RH WIND       PRES   REMARKS
CARBONDALE     PTSUNNY   58  56  93 CALM      29.94R FOG
CAIRO*         PTSUNNY   60  59  94 CALM      29.93S FOG
EFFINGHAM*     SUNNY     56  52  85 E7        29.96S
MARION         PTSUNNY   61  59  94 SE5       29.95R
CENTRALIA*     MOSUNNY   59  56  91 E3        29.94S FOG
SALEM*         SUNNY     59  57  94 E5        29.95R
METROPOLIS*    PTSUNNY   60  60  99 CALM      29.93S
$$

ILZ067-068-072-073-078-083-087-091-011400-
SOUTHEAST ILLINOIS

CITY           SKY/WX    TMP DP  RH WIND       PRES   REMARKS
LAWRENCEVILLE  SUNNY     57  54  89 NE5       29.98R FOG
FLORA*         SUNNY     56  55  95 E3        29.96S
FAIRFIELD*     MOSUNNY   61  57  88 CALM      29.95S FOG
HARRISBURG*    PTSUNNY   61  61 100 CALM      29.96R FOG
ROBINSON*      SUNNY     56  55  97 E3        29.99S
CARMI*         CLOUDY    61  61 100 CALM      29.95S FOG
$$

ABBREVIATIONS USED IN REMARKS
   TC - TEMPERATURE IN CELSIUS
  WCI - WIND CHILL INDEX
   HX - HEAT INDEX
  VSB - VISIBILITY
$$




USA.gov is the U.S. government's official web portal to all federal, state and local government web resources and services.